Total_Precipitation_Accumulation
0.32 0.28 0.43 0.47 0.37 0.40 0.71 0.72 0.73 0.41 0.33 0.39 0.40 0.43 0.45 0.44 0.40 0.39 0.40 0.39 0.36 0.41 0.43 0.48 0.55 0.58 0.59 0.63 0.69 0.78 0.88 0.86 0.87 0.90 0.90 0.92 0.94 0.94 0.96 0.99 0.99 1.00 1.11 1.21
0.35 0.22 0.32 0.40 0.28 0.27 0.32 0.36 0.41 0.32 0.35 0.34 0.37 0.40 0.43 0.42 0.40 0.44 0.44 0.44 0.39 0.39 0.41 0.44 0.52 0.62 0.66 0.71 0.77 0.76 0.81 0.82 0.81 0.85 0.89 0.91 0.87 0.83 0.86 0.94 0.99 1.00 1.02 1.09
0.57 0.24 0.48 0.58 0.35 0.28 0.27 0.32 0.39 0.46 0.44 0.36 0.41 0.51 0.57 0.50 0.41 0.43 0.48 0.51 0.46 0.43 0.46 0.48 0.59 0.79 0.90 0.93 0.92 0.89 0.86 0.83 0.80 0.83 0.88 0.90 0.92 0.91 0.92 0.95 1.01 1.07 1.05 1.08
0.95 0.58 0.82 0.51 0.27 0.23 0.26 0.35 0.42 0.41 0.37 0.39 0.46 0.52 0.54 0.47 0.41 0.44 0.48 0.54 0.54 0.53 0.58 0.60 0.67 0.82 0.95 1.01 1.03 1.03 1.02 0.99 0.93 0.95 1.01 1.09 1.12 1.16 1.12 1.12 1.16 1.21 1.19 1.20
1.40 0.94 0.49 0.28 0.20 0.30 0.37 0.41 0.41 0.38 0.34 0.33 0.34 0.38 0.41 0.39 0.39 0.46 0.53 0.57 0.58 0.58 0.63 0.71 0.75 0.80 0.93 1.07 1.08 1.11 1.22 1.30 1.26 1.24 1.28 1.34 1.40 1.44 1.44 1.43 1.43 1.42 1.41 1.37
1.67 1.29 0.59 0.29 0.17 0.24 0.38 0.56 0.34 0.34 0.36 0.34 0.36 0.50 0.45 0.39 0.41 0.44 0.48 0.51 0.54 0.55 0.58 0.72 0.83 0.93 1.06 1.20 1.26 1.28 1.37 1.46 1.43 1.41 1.41 1.42 1.42 1.40 1.39 1.38 1.39 1.37 1.37 1.30
1.37 1.25 0.57 0.29 0.17 0.26 0.66 0.71 0.37 0.34 0.39 0.43 0.53 0.60 0.47 0.41 0.45 0.49 0.51 0.52 0.56 0.61 0.71 0.89 1.03 1.18 1.36 1.41 1.43 1.37 1.36 1.36 1.31 1.25 1.20 1.17 1.16 1.11 1.09 1.08 1.10 1.09 1.09 1.06
1.08 1.40 0.77 0.28 0.26 0.54 0.70 0.44 0.33 0.30 0.35 0.42 0.42 0.38 0.36 0.36 0.39 0.47 0.53 0.54 0.59 0.69 0.81 0.91 1.02 1.16 1.26 1.25 1.20 1.14 1.08 1.05 1.01 0.98 0.95 0.94 0.97 0.96 0.92 0.93 0.95 0.93 0.91 0.93
0.87 0.84 0.54 0.39 0.47 0.52 0.46 0.41 0.33 0.36 0.35 0.37 0.37 0.32 0.32 0.33 0.33 0.38 0.44 0.47 0.52 0.58 0.63 0.68 0.75 0.85 0.92 0.93 0.87 0.86 0.81 0.78 0.79 0.79 0.82 0.82 0.86 0.90 0.90 0.89 0.92 0.90 0.88 0.90
0.68 0.54 0.44 0.43 0.39 0.37 0.37 0.41 0.38 0.37 0.36 0.35 0.37 0.31 0.31 0.33 0.33 0.35 0.38 0.42 0.48 0.50 0.50 0.55 0.60 0.65 0.74 0.79 0.81 0.78 0.77 0.74 0.72 0.74 0.80 0.86 0.90 0.93 0.96 0.96 0.98 0.97 0.97 0.94
0.62 0.47 0.44 0.43 0.40 0.41 0.40 0.35 0.31 0.29 0.28 0.31 0.35 0.34 0.34 0.38 0.38 0.39 0.42 0.47 0.50 0.52 0.53 0.56 0.55 0.56 0.63 0.73 0.78 0.79 0.78 0.77 0.77 0.75 0.78 0.86 0.93 0.99 1.07 1.07 1.14 1.27 1.21 1.13
0.67 0.46 0.56 0.51 0.43 0.41 0.39 0.34 0.30 0.30 0.29 0.28 0.33 0.38 0.37 0.38 0.41 0.43 0.47 0.49 0.49 0.50 0.52 0.54 0.54 0.54 0.58 0.67 0.75 0.82 0.83 0.82 0.82 0.84 0.83 0.85 0.91 1.01 1.12 1.18 1.21 1.21 1.23 1.28
0.61 0.50 0.53 0.51 0.42 0.37 0.36 0.33 0.31 0.32 0.34 0.35 0.33 0.35 0.38 0.39 0.40 0.43 0.44 0.45 0.48 0.51 0.53 0.53 0.53 0.53 0.59 0.67 0.75 0.83 0.90 0.91 0.92 0.91 0.91 0.93 0.94 0.96 1.08 1.17 1.21 1.19 1.17 1.21
0.48 0.51 0.52 0.41 0.39 0.35 0.33 0.32 0.31 0.31 0.33 0.36 0.37 0.35 0.35 0.35 0.35 0.39 0.44 0.48 0.49 0.49 0.50 0.52 0.52 0.54 0.58 0.64 0.70 0.75 0.80 0.88 0.93 0.95 0.96 0.98 0.99 0.98 0.98 1.02 1.08 1.13 1.13 1.16
0.46 0.50 0.53 0.46 0.39 0.36 0.33 0.32 0.31 0.33 0.35 0.36 0.35 0.37 0.37 0.39 0.41 0.44 0.45 0.46 0.45 0.43 0.46 0.49 0.51 0.53 0.56 0.61 0.68 0.73 0.77 0.84 0.93 0.97 0.98 1.00 1.01 1.03 1.02 1.00 1.00 1.01 1.04 1.16
0.54 0.49 0.45 0.44 0.43 0.41 0.40 0.40 0.40 0.40 0.38 0.38 0.37 0.39 0.42 0.44 0.46 0.46 0.44 0.44 0.46 0.47 0.48 0.49 0.51 0.54 0.58 0.62 0.68 0.73 0.78 0.90 0.97 0.99 0.99 0.99 1.01 1.06 1.08 1.05 1.04 1.02 1.03 1.16
0.74 0.69 0.62 0.57 0.51 0.49 0.50 0.52 0.52 0.50 0.46 0.44 0.45 0.45 0.43 0.41 0.41 0.42 0.44 0.46 0.48 0.51 0.52 0.55 0.58 0.57 0.59 0.62 0.67 0.73 0.77 0.84 0.94 0.95 0.95 0.98 1.02 1.06 1.07 1.07 1.05 1.02 1.05 1.18
0.78 0.78 0.76 0.76 0.70 0.64 0.61 0.59 0.57 0.56 0.56 0.55 0.52 0.49 0.47 0.47 0.49 0.50 0.50 0.47 0.44 0.43 0.47 0.53 0.57 0.57 0.57 0.63 0.70 0.74 0.78 0.82 0.87 0.91 0.94 1.00 1.08 1.10 1.10 1.08 1.02 1.00 1.01 1.13
0.66 0.66 0.64 0.66 0.67 0.67 0.64 0.63 0.63 0.63 0.61 0.59 0.57 0.57 0.56 0.56 0.57 0.58 0.56 0.52 0.48 0.48 0.51 0.53 0.57 0.54 0.55 0.62 0.74 0.77 0.80 0.84 0.85 0.87 0.92 1.00 1.05 1.01 1.02 1.03 1.00 0.98 0.98 1.02
0.59 0.58 0.56 0.56 0.56 0.58 0.61 0.62 0.60 0.58 0.58 0.57 0.56 0.54 0.54 0.55 0.56 0.57 0.54 0.55 0.61 0.66 0.63 0.61 0.57 0.52 0.55 0.63 0.74 0.76 0.78 0.81 0.84 0.85 0.88 0.91 0.93 0.92 0.93 0.96 0.98 0.98 0.97 0.96
0.59 0.58 0.57 0.59 0.61 0.61 0.63 0.64 0.61 0.60 0.60 0.58 0.59 0.59 0.57 0.55 0.55 0.55 0.53 0.55 0.59 0.61 0.59 0.58 0.55 0.57 0.65 0.79 0.83 0.76 0.74 0.78 0.81 0.84 0.88 0.90 0.90 0.88 0.88 0.91 0.94 0.95 0.96 0.95
0.55 0.57 0.57 0.57 0.58 0.62 0.64 0.61 0.59 0.59 0.60 0.61 0.60 0.58 0.56 0.55 0.54 0.52 0.53 0.62 0.66 0.67 0.63 0.56 0.59 0.73 0.91 0.95 0.81 0.71 0.71 0.75 0.79 0.81 0.84 0.84 0.86 0.87 0.86 0.87 0.91 0.93 0.95 0.97
0.44 0.46 0.47 0.48 0.52 0.56 0.54 0.54 0.56 0.58 0.62 0.66 0.68 0.66 0.65 0.64 0.63 0.62 0.64 0.63 0.63 0.66 0.64 0.63 0.72 0.86 0.95 0.84 0.70 0.66 0.68 0.71 0.75 0.77 0.78 0.79 0.81 0.84 0.87 0.87 0.88 0.91 0.94 0.94
0.38 0.39 0.42 0.44 0.43 0.41 0.45 0.50 0.53 0.56 0.58 0.60 0.63 0.65 0.65 0.64 0.61 0.62 0.68 0.69 0.68 0.67 0.63 0.68 0.74 0.80 0.79 0.69 0.63 0.63 0.64 0.66 0.68 0.70 0.73 0.74 0.76 0.79 0.83 0.83 0.84 0.83 0.85 0.86
0.38 0.38 0.38 0.38 0.39 0.42 0.45 0.46 0.45 0.45 0.46 0.49 0.51 0.53 0.57 0.62 0.67 0.66 0.60 0.60 0.61 0.60 0.56 0.58 0.63 0.66 0.62 0.57 0.57 0.59 0.61 0.65 0.74 0.80 0.78 0.74 0.72 0.73 0.74 0.75 0.78 0.78 0.78 0.79
0.39 0.40 0.41 0.42 0.44 0.45 0.44 0.42 0.40 0.41 0.42 0.43 0.44 0.46 0.49 0.51 0.53 0.53 0.52 0.51 0.51 0.52 0.50 0.50 0.52 0.54 0.54 0.55 0.57 0.58 0.61 0.63 0.67 0.70 0.70 0.69 0.68 0.69 0.69 0.70 0.70 0.73 0.75 0.76
0.37 0.38 0.37 0.36 0.37 0.39 0.40 0.39 0.39 0.40 0.40 0.43 0.44 0.42 0.42 0.43 0.44 0.45 0.46 0.46 0.46 0.45 0.45 0.46 0.48 0.51 0.53 0.54 0.55 0.55 0.56 0.58 0.60 0.63 0.65 0.66 0.68 0.69 0.68 0.69 0.70 0.71 0.73 0.73